Content
SEND FEEDBACK

Daily
Averages
Monthly
Summary
United States of America

ANN ARBOR, MICHIGAN


Home > North America > United States > Michigan
Elevation: 231 meters     Latitude: 42 17N     Longitude: 083 43W

WEATHER
 
SELECT A DAY
Number of Records: 203,130;   Date Range: 1/1/95 - 7/20/14
 
SHARE

PRINT THIS DATA

[ ← Previous Day ]
WEATHER ALMANAC - 29 NOVEMBER, 2013
[ Next Day → ]
[ °F ]   °C
Weather ElementAverageHighLow
Temperature-4.3 °C0.6 °C (3:53 pm)-11.1 °C (1:53 am)
Dewpoint-8.9 °C-6.1 °C (11:53 pm)-13.3 °C (2:53 am)
Humidity72.5 %92 % (1:53 am)45 % (2:53 pm)
Barometer1036.2 hPa1038.6 hPa (10:53 am)1031.5 hPa (1:53 am)
Wind Speed3.7 km/h11.1 km/h (8:53 pm)
Weather ElementAverage
Visibility15.8 km
Wind DirectionENE (79.6 °)

Weather ElementTotal
Precipitation---
Heating Degree Days23.6 (Base 18.3)
Averaged from 23 records on 29 November, 2013
WEATHER CONDITIONS BREAKOUT
WIND DIRECTION BREAKOUT
WEATHER BY HOUR - 29 NOVEMBER, 2013
[ °F ]   °C
Local TimeTemperatureDewpointHumidityBarometerVisibilityWind DirectionWind SpeedGust SpeedPrecipitationEventsConditions
1:53 AM-11.1 °C-12.2 °C92 %1031.5 hPa14.5 kmCalmClear
2:53 AM-11.1 °C-13.3 °C84 %1032.8 hPa16.1 kmCalmOvercast
3:53 AM-8.9 °C-11.1 °C84 %1033.2 hPa16.1 kmCalmOvercast
4:53 AM-7.2 °C-9.4 °C85 %1033.9 hPa16.1 kmCalmOvercast
5:53 AM-7.2 °C-8.9 °C88 %1034.9 hPa16.1 kmCalmOvercast
6:53 AM-6.1 °C-8.9 °C81 %1035.6 hPa16.1 kmNorth (350°)5.6 km/hClear
7:53 AM-10.6 °C-12.2 °C88 %1036.9 hPa12.9 kmCalmClear
8:53 AM-6.7 °C-7.8 °C92 %1037.6 hPa14.5 kmCalmClear
9:53 AM-2.8 °C-6.7 °C75 %1038.3 hPa16.1 kmCalmClear
10:53 AM-1.7 °C-6.7 °C69 %1038.6 hPa16.1 kmCalmClear
11:53 AM-1.1 °C-7.2 °C64 %1038.3 hPa16.1 kmWSW (240°)5.6 km/hClear
12:53 PM0 °C-8.9 °C52 %1037.9 hPa16.1 kmCalmClear
1:53 PM-0.6 °C-10 °C50 %1037.3 hPa16.1 kmCalmClear
2:53 PM0 °C-10.6 °C45 %1037.3 hPa16.1 kmWSW (240°)5.6 km/hClear
3:53 PM0.6 °C-9.4 °C48 %1037.6 hPa16.1 kmVariable5.6 km/hClear
4:53 PM-0.6 °C-10 °C50 %1037.9 hPa16.1 kmCalmClear
5:53 PM-2.2 °C-7.8 °C66 %1037.6 hPa16.1 kmSSE (150°)9.3 km/hClear
6:53 PM-3.3 °C-7.8 °C71 %1037.6 hPa16.1 kmSE (140°)7.4 km/hClear
7:53 PM-3.9 °C-7.8 °C75 %1037.6 hPa16.1 kmSSE (150°)7.4 km/hClear
8:53 PM-4.4 °C-7.8 °C77 %1036.9 hPa16.1 kmSE (140°)11.1 km/hClear
9:53 PM-3.9 °C-7.2 °C78 %1036.2 hPa16.1 kmSE (130°)9.3 km/hClear
10:53 PM-3.3 °C-6.7 °C78 %1035.6 hPa16.1 kmSE (140°)9.3 km/hClear
11:53 PM-2.2 °C-6.1 °C75 %1034.9 hPa16.1 kmSSE (150°)9.3 km/hClear
Hourly data recorded from KARB, located 0 kilometers away from Ann Arbor, Michigan







STORIES FROM OUR PARTNERS